EN

Hourly Weather Lago de Managua

Today, 1 August, Sunday

Time Temperature Precipitation Wind Pressure Humidity
00:00 +29°C° 0 mm 3 mps 755 mmHg 72%
01:00 +28°C° 0 mm 3 mps 755 mmHg 74%
02:00 +28°C° 0 mm 3 mps 755 mmHg 75%
03:00 +27°C° 0 mm 3 mps 755 mmHg 76%
04:00 +27°C° 0 mm 3 mps 755 mmHg 76%
05:00 +27°C° 0 mm 3 mps 755 mmHg 75%
06:00 +27°C° 0 mm 3 mps 756 mmHg 74%
07:00 +30°C° 0 mm 4 mps 756 mmHg 64%
08:00 +33°C° 0 mm 5 mps 756 mmHg 55%
09:00 +35°C° 0 mm 6 mps 756 mmHg 45%
10:00 +36°C° 0 mm 6 mps 756 mmHg 40%
11:00 +38°C° 0 mm 6 mps 755 mmHg 36%
12:00 +40°C° 0 mm 6 mps 755 mmHg 31%
13:00 +40°C° 0 mm 6 mps 754 mmHg 32%
14:00 +40°C° 0 mm 6 mps 754 mmHg 32%
15:00 +40°C° 0 mm 6 mps 753 mmHg 33%
16:00 +39°C° 0 mm 6 mps 754 mmHg 38%
17:00 +36°C° 0 mm 6 mps 754 mmHg 43%
18:00 +34°C° 0 mm 5 mps 754 mmHg 49%
19:00 +33°C° 0 mm 5 mps 755 mmHg 54%
20:00 +32°C° 0 mm 4 mps 755 mmHg 58%
21:00 +30°C° 0 mm 3 mps 756 mmHg 63%
22:00 +29°C° 0 mm 3 mps 756 mmHg 67%
23:00 +28°C° 0 mm 3 mps 756 mmHg 71%

Tomorrow, 2 August, Monday

Time Temperature Precipitation Wind Pressure Humidity
00:00 +28°C° 0 mm 3 mps 756 mmHg 75%
01:00 +27°C° 0 mm 2 mps 755 mmHg 77%
02:00 +27°C° 0 mm 2 mps 755 mmHg 79%
03:00 +26°C° 0 mm 2 mps 755 mmHg 81%
04:00 +26°C° 0 mm 2 mps 755 mmHg 81%
05:00 +26°C° 0 mm 2 mps 755 mmHg 81%
06:00 +26°C° 0 mm 1 mps 755 mmHg 82%
07:00 +28°C° 0 mm 2 mps 756 mmHg 72%
08:00 +31°C° 0 mm 2 mps 756 mmHg 62%
09:00 +34°C° 0 mm 3 mps 756 mmHg 52%
10:00 +36°C° 0 mm 4 mps 755 mmHg 47%
11:00 +37°C° 0 mm 4 mps 755 mmHg 42%
12:00 +40°C° 0 mm 5 mps 754 mmHg 36%
13:00 +40°C° 0 mm 5 mps 753 mmHg 36%
14:00 +40°C° 0 mm 5 mps 753 mmHg 35%
15:00 +40°C° 0 mm 5 mps 752 mmHg 35%
16:00 +38°C° 0 mm 4 mps 753 mmHg 40%
17:00 +36°C° 0 mm 4 mps 753 mmHg 45%
18:00 +35°C° 0 mm 3 mps 753 mmHg 51%
19:00 +32°C° 0 mm 2 mps 754 mmHg 58%
20:00 +31°C° 0 mm 2 mps 755 mmHg 65%
21:00 +29°C° 0 mm 2 mps 755 mmHg 72%
22:00 +29°C° 0 mm 2 mps 755 mmHg 75%
23:00 +28°C° 0 mm 2 mps 755 mmHg 77%

Day after tomorrow, 3 August, Tuesday

Time Temperature Precipitation Wind Pressure Humidity
00:00 +28°C° 0 mm 2 mps 755 mmHg 80%
01:00 +27°C° 0 mm 2 mps 755 mmHg 81%
02:00 +27°C° 0 mm 2 mps 754 mmHg 82%
03:00 +27°C° 0 mm 1 mps 754 mmHg 82%
04:00 +27°C° 0 mm 1 mps 754 mmHg 82%
05:00 +27°C° 0 mm 1 mps 754 mmHg 81%
06:00 +27°C° 0 mm 1 mps 755 mmHg 80%
07:00 +29°C° 0 mm 2 mps 755 mmHg 71%
08:00 +31°C° 0 mm 2 mps 755 mmHg 62%
09:00 +35°C° 0 mm 3 mps 755 mmHg 53%
10:00 +35°C° 0 mm 3 mps 755 mmHg 51%
11:00 +36°C° 0 mm 3 mps 754 mmHg 48%
12:00 +37°C° 0 mm 4 mps 754 mmHg 46%
13:00 +36°C° 0 mm 3 mps 753 mmHg 48%
14:00 +36°C° 0 mm 3 mps 753 mmHg 50%
15:00 +36°C° 0 mm 3 mps 752 mmHg 52%
16:00 +34°C° 0.7 mm 3 mps 753 mmHg 57%
17:00 +33°C° 0.7 mm 3 mps 753 mmHg 63%
18:00 +30°C° 0.7 mm 2 mps 753 mmHg 68%
19:00 +30°C° 0.4 mm 2 mps 754 mmHg 72%
20:00 +29°C° 0.4 mm 2 mps 755 mmHg 76%
21:00 +28°C° 0.4 mm 2 mps 755 mmHg 79%
22:00 +28°C° 0.3 mm 2 mps 755 mmHg 81%
23:00 +27°C° 0.3 mm 2 mps 755 mmHg 83%

4 August, Wednesday

Time Temperature Precipitation Wind Pressure Humidity
00:00 +27°C° 0.3 mm 2 mps 755 mmHg 84%
01:00 +27°C° 0.9 mm 2 mps 755 mmHg 87%
02:00 +26°C° 0.9 mm 2 mps 755 mmHg 89%
03:00 +26°C° 0.9 mm 2 mps 754 mmHg 92%
04:00 +26°C° 0.7 mm 2 mps 755 mmHg 92%
05:00 +26°C° 0.7 mm 2 mps 755 mmHg 92%
06:00 +26°C° 0.7 mm 1 mps 755 mmHg 92%
07:00 +26°C° 1 mm 2 mps 756 mmHg 91%
08:00 +26°C° 1 mm 2 mps 756 mmHg 91%
09:00 +26°C° 1 mm 2 mps 757 mmHg 91%
10:00 +27°C° 0.6 mm 1 mps 757 mmHg 87%
11:00 +27°C° 0.6 mm 1 mps 756 mmHg 84%
12:00 +26°C° 0.6 mm 0 mps 756 mmHg 81%
13:00 +26°C° 0.9 mm 0 mps 756 mmHg 78%
14:00 +29°C° 0.9 mm 1 mps 755 mmHg 75%
15:00 +30°C° 0.9 mm 1 mps 755 mmHg 72%
16:00 +29°C° 1.3 mm 1 mps 755 mmHg 77%
17:00 +28°C° 1.3 mm 2 mps 755 mmHg 82%
18:00 +27°C° 1.3 mm 2 mps 756 mmHg 87%
19:00 +26°C° 0.2 mm 2 mps 756 mmHg 88%
20:00 +26°C° 0.2 mm 2 mps 756 mmHg 89%
21:00 +26°C° 0.2 mm 2 mps 757 mmHg 90%
22:00 +26°C° 0 mm 2 mps 757 mmHg 90%
23:00 +26°C° 0 mm 1 mps 757 mmHg 90%

5 August, Thursday

Time Temperature Precipitation Wind Pressure Humidity
00:00 +26°C° 0 mm 1 mps 757 mmHg 90%
01:00 +26°C° 0 mm 1 mps 756 mmHg 90%
02:00 +26°C° 0 mm 1 mps 756 mmHg 90%
03:00 +26°C° 0 mm 1 mps 756 mmHg 90%
04:00 +26°C° 0 mm 1 mps 756 mmHg 89%
05:00 +26°C° 0 mm 1 mps 756 mmHg 89%
06:00 +26°C° 0 mm 1 mps 756 mmHg 88%
07:00 +27°C° 0 mm 1 mps 757 mmHg 80%
08:00 +29°C° 0 mm 2 mps 757 mmHg 72%
09:00 +30°C° 0 mm 2 mps 757 mmHg 64%
10:00 +31°C° 0 mm 2 mps 757 mmHg 60%
11:00 +33°C° 0 mm 3 mps 757 mmHg 56%
12:00 +35°C° 0 mm 3 mps 756 mmHg 51%
13:00 +35°C° 0 mm 3 mps 756 mmHg 50%
14:00 +36°C° 0 mm 3 mps 755 mmHg 48%
15:00 +36°C° 0 mm 2 mps 754 mmHg 47%
16:00 +34°C° 0.1 mm 2 mps 755 mmHg 55%
17:00 +32°C° 0.1 mm 2 mps 755 mmHg 64%
18:00 +30°C° 0.1 mm 2 mps 756 mmHg 73%
19:00 +29°C° 1.8 mm 2 mps 756 mmHg 78%
20:00 +28°C° 1.8 mm 1 mps 757 mmHg 83%
21:00 +27°C° 1.8 mm 1 mps 757 mmHg 89%
22:00 +27°C° 0.4 mm 1 mps 757 mmHg 89%
23:00 +27°C° 0.4 mm 1 mps 757 mmHg 89%

6 August, Friday

Time Temperature Precipitation Wind Pressure Humidity
00:00 +26°C° 0.4 mm 1 mps 757 mmHg 90%
01:00 +26°C° 0 mm 1 mps 757 mmHg 90%
02:00 +26°C° 0 mm 1 mps 756 mmHg 90%
03:00 +26°C° 0 mm 1 mps 756 mmHg 90%
04:00 +26°C° 0 mm 1 mps 756 mmHg 90%
05:00 +26°C° 0 mm 1 mps 756 mmHg 90%
06:00 +26°C° 0 mm 1 mps 757 mmHg 90%
07:00 +28°C° 0 mm 1 mps 757 mmHg 81%
08:00 +29°C° 0 mm 1 mps 757 mmHg 72%
09:00 +31°C° 0 mm 2 mps 757 mmHg 63%
10:00 +32°C° 0 mm 2 mps 757 mmHg 61%
11:00 +32°C° 0 mm 2 mps 756 mmHg 59%
12:00 +34°C° 0 mm 2 mps 756 mmHg 58%
13:00 +34°C° 0.4 mm 3 mps 755 mmHg 60%
14:00 +34°C° 0.4 mm 3 mps 755 mmHg 61%
15:00 +33°C° 0.4 mm 4 mps 755 mmHg 63%
16:00 +33°C° 0.1 mm 4 mps 755 mmHg 65%
17:00 +32°C° 0.1 mm 4 mps 755 mmHg 67%
18:00 +30°C° 0.1 mm 4 mps 755 mmHg 69%
19:00 +29°C° 0 mm 3 mps 756 mmHg 71%
20:00 +29°C° 0 mm 3 mps 756 mmHg 72%
21:00 +28°C° 0 mm 2 mps 756 mmHg 73%
22:00 +28°C° 0 mm 2 mps 756 mmHg 74%
23:00 +28°C° 0 mm 1 mps 756 mmHg 75%
Show more